﻿_id,日時,平均風速(m/s),平均風向,最大瞬間風速(m/s),最大風速時風向,気温(℃),湿度(%),10分間移動積算雨量(mm),1時間移動積算雨量(mm),日雨量(mm),累計雨量(mm),日射(日積算)(MJ/m2),日照(日積算)(min),現地気圧(hPa),海面気圧(hPa)
1,2020-11-16T00:00:00,0.2,静穏,0.7,西北西,12.9,92,0,0,0,0,12.66,380,1012.4,1026.5
2,2020-11-16T00:01:00,0.3,北北西,0.7,西北西,12.9,92.1,0,0,0,0,0,0,1012.4,1026.5
3,2020-11-16T00:02:00,0.3,北北西,0.7,西北西,12.8,91.9,0,0,0,0,0,0,1012.3,1026.4
4,2020-11-16T00:03:00,0.3,北北西,0.7,西北西,12.9,92,0,0,0,0,0,0,1012.3,1026.4
5,2020-11-16T00:04:00,0.2,静穏,0.7,西北西,12.8,91.9,0,0,0,0,0,0,1012.3,1026.4
6,2020-11-16T00:05:00,0.2,静穏,0.7,西北西,12.8,91.9,0,0,0,0,0,0,1012.2,1026.3
7,2020-11-16T00:06:00,0.2,静穏,0.7,西北西,12.9,92.3,0,0,0,0,0,0,1012.3,1026.4
8,2020-11-16T00:07:00,0.2,静穏,0.7,西北西,12.9,92.2,0,0,0,0,0,0,1012.2,1026.3
9,2020-11-16T00:08:00,0.2,静穏,0.7,西北西,12.9,92.4,0,0,0,0,0,0,1012.2,1026.3
10,2020-11-16T00:09:00,0.1,静穏,0.7,北西,12.8,92,0,0,0,0,0,0,1012.2,1026.3
11,2020-11-16T00:10:00,0.1,静穏,0.4,北西,12.7,91.7,0,0,0,0,0,0,1012.2,1026.3
12,2020-11-16T00:11:00,0.1,静穏,0.4,北西,12.6,91.6,0,0,0,0,0,0,1012.3,1026.4
13,2020-11-16T00:12:00,0.1,静穏,0.4,北西,12.6,91.8,0,0,0,0,0,0,1012.2,1026.3
14,2020-11-16T00:13:00,0.1,静穏,0.4,北西,12.7,92.3,0,0,0,0,0,0,1012.2,1026.3
15,2020-11-16T00:14:00,0.1,静穏,0.6,西,12.6,92.2,0,0,0,0,0,0,1012.2,1026.3
16,2020-11-16T00:15:00,0.1,静穏,0.6,西,12.5,92.1,0,0,0,0,0,0,1012.2,1026.3
17,2020-11-16T00:16:00,0.1,静穏,0.6,西,12.5,92.5,0,0,0,0,0,0,1012.2,1026.3
18,2020-11-16T00:17:00,0.2,静穏,0.7,西,12.8,93.5,0,0,0,0,0,0,1012.2,1026.3
19,2020-11-16T00:18:00,0.2,静穏,0.9,西,13,94.2,0,0,0,0,0,0,1012.2,1026.3
20,2020-11-16T00:19:00,0.3,西,0.9,西,12.9,93.5,0,0,0,0,0,0,1012.2,1026.3
21,2020-11-16T00:20:00,0.3,西,1,西北西,12.7,92.6,0,0,0,0,0,0,1012.2,1026.3
22,2020-11-16T00:21:00,0.4,西,1.9,西,12.5,92,0,0,0,0,0,0,1012.3,1026.4
23,2020-11-16T00:22:00,0.6,西,1.9,西,12.3,91.6,0,0,0,0,0,0,1012.3,1026.4
24,2020-11-16T00:23:00,0.7,西,1.9,西,12.4,91.6,0,0,0,0,0,0,1012.3,1026.4
25,2020-11-16T00:24:00,0.8,西,1.9,西,12.5,92.5,0,0,0,0,0,0,1012.3,1026.4
26,2020-11-16T00:25:00,0.9,西,1.9,西,12.5,92.5,0,0,0,0,0,0,1012.3,1026.4
27,2020-11-16T00:26:00,1,西,1.9,西,12.4,92.6,0,0,0,0,0,0,1012.3,1026.4
28,2020-11-16T00:27:00,1,西北西,1.9,西,12.4,92.6,0,0,0,0,0,0,1012.2,1026.3
29,2020-11-16T00:28:00,1,西,1.9,西,12.4,92.6,0,0,0,0,0,0,1012.2,1026.3
30,2020-11-16T00:29:00,1,西,1.9,西,12.5,93.2,0,0,0,0,0,0,1012.2,1026.3
31,2020-11-16T00:30:00,1,西,1.9,西,12.4,92.9,0,0,0,0,0,0,1012.2,1026.3
32,2020-11-16T00:31:00,0.8,西,1.7,西,12.3,93,0,0,0,0,0,0,1012.2,1026.3
33,2020-11-16T00:32:00,0.8,西,1.5,西北西,12.2,92.7,0,0,0,0,0,0,1012.2,1026.3
34,2020-11-16T00:33:00,0.9,西,2,西,12.2,92.9,0,0,0,0,0,0,1012.1,1026.2
35,2020-11-16T00:34:00,0.9,西,2,西,12.3,93.3,0,0,0,0,0,0,1012.1,1026.2
36,2020-11-16T00:35:00,1,西,2,西,12.3,94,0,0,0,0,0,0,1012.1,1026.2
37,2020-11-16T00:36:00,1,西,2,西,12.3,93.9,0,0,0,0,0,0,1012.1,1026.2
38,2020-11-16T00:37:00,1,西,2,西,12.3,93.9,0,0,0,0,0,0,1012.1,1026.2
39,2020-11-16T00:38:00,1.1,西,2,西,12.4,94.4,0,0,0,0,0,0,1012.1,1026.2
40,2020-11-16T00:39:00,1.1,西,2,西,12.3,94.1,0,0,0,0,0,0,1012.1,1026.2
41,2020-11-16T00:40:00,1.1,西,2,西,12.3,94,0,0,0,0,0,0,1012.1,1026.2
42,2020-11-16T00:41:00,1.1,西,2,西,12.4,94.7,0,0,0,0,0,0,1012.1,1026.2
43,2020-11-16T00:42:00,1.2,西,2,西,12.3,94.3,0,0,0,0,0,0,1012.1,1026.2
44,2020-11-16T00:43:00,1.1,西,2,西,12.2,94.1,0,0,0,0,0,0,1012.1,1026.2
45,2020-11-16T00:44:00,1,西,1.7,西,12.3,94.3,0,0,0,0,0,0,1012.1,1026.2
46,2020-11-16T00:45:00,1,西,1.5,西北西,12.1,93.9,0,0,0,0,0,0,1012.1,1026.2
47,2020-11-16T00:46:00,1,西,1.5,西北西,12.2,94.1,0,0,0,0,0,0,1012.1,1026.2
48,2020-11-16T00:47:00,1,西,2.9,西,12.3,94.8,0,0,0,0,0,0,1012.1,1026.2
49,2020-11-16T00:48:00,1.2,西,2.9,西,12.3,95,0,0,0,0,0,0,1012.1,1026.2
50,2020-11-16T00:49:00,1.3,西,3.1,西,12.2,94.9,0,0,0,0,0,0,1012.1,1026.2
51,2020-11-16T00:50:00,1.5,西,3.1,西,12.2,94.7,0,0,0,0,0,0,1012.1,1026.2
52,2020-11-16T00:51:00,1.6,西,3.1,西,12.2,95.1,0,0,0,0,0,0,1012.1,1026.2
53,2020-11-16T00:52:00,1.6,西,3.1,西,12.2,94.9,0,0,0,0,0,0,1012.1,1026.2
54,2020-11-16T00:53:00,1.6,西,3.1,西,12.2,95.1,0,0,0,0,0,0,1012.1,1026.2
55,2020-11-16T00:54:00,1.7,西,3.1,西,12.2,95.4,0,0,0,0,0,0,1012.1,1026.2
56,2020-11-16T00:55:00,1.7,西,3.1,西,12.2,95.3,0,0,0,0,0,0,1012.1,1026.2
57,2020-11-16T00:56:00,1.7,西,3.1,西,12.1,95.2,0,0,0,0,0,0,1012.1,1026.2
58,2020-11-16T00:57:00,1.5,西,3.1,西,11.9,94.7,0,0,0,0,0,0,1012.1,1026.2
59,2020-11-16T00:58:00,1.3,西,3.1,西,12.1,95.2,0,0,0,0,0,0,1012.1,1026.2
60,2020-11-16T00:59:00,1.2,西,2.8,西,12.2,95.4,0,0,0,0,0,0,1012.1,1026.2
61,2020-11-16T01:00:00,1.1,西,2.2,西,12.2,95.7,0,0,0,0,0,0,1012.1,1026.2
62,2020-11-16T01:01:00,1,西南西,2.2,西,12.2,95.7,0,0,0,0,0,0,1012.1,1026.2
63,2020-11-16T01:02:00,1,西南西,2.2,西,12.1,95.3,0,0,0,0,0,0,1012.1,1026.2
64,2020-11-16T01:03:00,0.9,西南西,2.2,西,12,95.4,0,0,0,0,0,0,1012.1,1026.2
65,2020-11-16T01:04:00,1,西南西,2.6,西,12,95.4,0,0,0,0,0,0,1012.1,1026.2
66,2020-11-16T01:05:00,1,西南西,2.6,西,12,95.3,0,0,0,0,0,0,1012.1,1026.2
67,2020-11-16T01:06:00,1.1,西南西,2.6,西,11.9,95.5,0,0,0,0,0,0,1012.1,1026.2
68,2020-11-16T01:07:00,1.2,西,2.6,西,11.9,95.4,0,0,0,0,0,0,1012.1,1026.2
69,2020-11-16T01:08:00,1.3,西,2.6,西,11.8,95.4,0,0,0,0,0,0,1012.1,1026.2
70,2020-11-16T01:09:00,1.4,西,2.6,西,11.8,95.4,0,0,0,0,0,0,1012.1,1026.2
71,2020-11-16T01:10:00,1.4,西,2.6,西,11.9,95.5,0,0,0,0,0,0,1012.1,1026.2
72,2020-11-16T01:11:00,1.4,西,2.6,西,11.6,95.2,0,0,0,0,0,0,1012.2,1026.4
73,2020-11-16T01:12:00,1.5,西,2.6,西,11.8,95.5,0,0,0,0,0,0,1012.2,1026.3
74,2020-11-16T01:13:00,1.5,西,2.6,西,11.8,95.6,0,0,0,0,0,0,1012.2,1026.3
75,2020-11-16T01:14:00,1.5,西北西,2.4,西,11.7,95.2,0,0,0,0,0,0,1012.2,1026.4
76,2020-11-16T01:15:00,1.4,西北西,2.4,西,11.7,95.1,0,0,0,0,0,0,1012.2,1026.4
77,2020-11-16T01:16:00,1.4,西北西,2.2,西北西,11.5,94.7,0,0,0,0,0,0,1012.2,1026.4
78,2020-11-16T01:17:00,1.3,西北西,2.2,西北西,11.3,94.3,0,0,0,0,0,0,1012.2,1026.4
79,2020-11-16T01:18:00,1.3,西北西,2.2,西北西,11.3,94.4,0,0,0,0,0,0,1012.2,1026.4
80,2020-11-16T01:19:00,1.2,西北西,1.9,西北西,11.4,94.7,0,0,0,0,0,0,1012.2,1026.4
81,2020-11-16T01:20:00,1.2,北西,1.9,西北西,11.4,95.1,0,0,0,0,0,0,1012.2,1026.4
82,2020-11-16T01:21:00,1.2,北西,1.9,西北西,11.4,95.2,0,0,0,0,0,0,1012.2,1026.4
83,2020-11-16T01:22:00,1.1,北北西,1.9,西北西,11.3,95.2,0,0,0,0,0,0,1012.2,1026.4
84,2020-11-16T01:23:00,1.1,北北西,1.9,西北西,11.2,94.9,0,0,0,0,0,0,1012.2,1026.4
85,2020-11-16T01:24:00,1,北北西,1.9,西北西,11.3,95.1,0,0,0,0,0,0,1012.2,1026.4
86,2020-11-16T01:25:00,0.9,北北西,1.7,北,11.5,95.5,0,0,0,0,0,0,1012.2,1026.4
87,2020-11-16T01:26:00,0.8,北北西,1.7,北,11.5,95.7,0,0,0,0,0,0,1012.2,1026.4
88,2020-11-16T01:27:00,0.8,北,1.7,北,11.4,95.5,0,0,0,0,0,0,1012.3,1026.5
89,2020-11-16T01:28:00,0.8,北,1.7,北,11.5,95.5,0,0,0,0,0,0,1012.3,1026.5
90,2020-11-16T01:29:00,0.8,北,1.7,北,11.4,95.5,0,0,0,0,0,0,1012.3,1026.5
91,2020-11-16T01:30:00,0.8,北,1.6,北,11.5,95.6,0,0,0,0,0,0,1012.3,1026.5
92,2020-11-16T01:31:00,0.7,北,1.4,北,11.6,95.7,0,0,0,0,0,0,1012.3,1026.5
93,2020-11-16T01:32:00,0.7,北北西,1.4,北,11.5,95.7,0,0,0,0,0,0,1012.4,1026.6
94,2020-11-16T01:33:00,0.7,北北西,1.4,北,11.4,95.5,0,0,0,0,0,0,1012.4,1026.6
95,2020-11-16T01:34:00,0.7,北北西,1.4,北,11.5,95.5,0,0,0,0,0,0,1012.4,1026.6
96,2020-11-16T01:35:00,0.7,北北西,1.4,北,11.5,95.5,0,0,0,0,0,0,1012.4,1026.6
97,2020-11-16T01:36:00,0.7,北北西,1.4,北,11.4,95.5,0,0,0,0,0,0,1012.4,1026.6
98,2020-11-16T01:37:00,0.7,北北西,1.5,北北東,11.5,95.4,0,0,0,0,0,0,1012.4,1026.6
99,2020-11-16T01:38:00,0.7,北北西,1.5,北北東,11.4,95.5,0,0,0,0,0,0,1012.4,1026.6
100,2020-11-16T01:39:00,0.6,北北西,1.5,北北東,11.4,95.4,0,0,0,0,0,0,1012.4,1026.6
101,2020-11-16T01:40:00,0.6,北北西,1.5,北北東,11.2,95.2,0,0,0,0,0,0,1012.4,1026.6
102,2020-11-16T01:41:00,0.6,北北西,1.5,北北東,11.2,95.2,0,0,0,0,0,0,1012.4,1026.6
103,2020-11-16T01:42:00,0.7,北北西,1.5,北北東,11.2,95.2,0,0,0,0,0,0,1012.4,1026.6
104,2020-11-16T01:43:00,0.7,北北西,1.5,北北東,11.2,95.3,0,0,0,0,0,0,1012.4,1026.6
105,2020-11-16T01:44:00,0.7,北北西,1.5,北北東,11.3,95.4,0,0,0,0,0,0,1012.4,1026.6
106,2020-11-16T01:45:00,0.7,北北西,1.5,北北東,11.2,95.4,0,0,0,0,0,0,1012.4,1026.6
107,2020-11-16T01:46:00,0.8,北北西,1.6,北西,11.3,95.5,0,0,0,0,0,0,1012.4,1026.6
108,2020-11-16T01:47:00,0.9,北北西,1.6,北西,11.2,95.5,0,0,0,0,0,0,1012.4,1026.6
109,2020-11-16T01:48:00,0.9,北北西,1.7,北,11.2,95.4,0,0,0,0,0,0,1012.4,1026.6
110,2020-11-16T01:49:00,0.9,北北西,1.7,北,11.1,95.4,0,0,0,0,0,0,1012.4,1026.6
111,2020-11-16T01:50:00,0.9,北北西,1.7,北,11.2,95.4,0,0,0,0,0,0,1012.4,1026.6
112,2020-11-16T01:51:00,0.9,北北西,1.7,北,11.1,95.4,0,0,0,0,0,0,1012.3,1026.5
113,2020-11-16T01:52:00,0.9,北北西,1.7,北,11.1,95.5,0,0,0,0,0,0,1012.3,1026.5
114,2020-11-16T01:53:00,0.9,北北西,1.7,北,11.1,95.5,0,0,0,0,0,0,1012.3,1026.5
115,2020-11-16T01:54:00,0.9,北北西,1.7,北,11.1,95.6,0,0,0,0,0,0,1012.3,1026.5
116,2020-11-16T01:55:00,0.8,北北西,1.7,北,11.1,95.6,0,0,0,0,0,0,1012.3,1026.5
117,2020-11-16T01:56:00,0.7,北北西,1.7,北,11.1,95.7,0,0,0,0,0,0,1012.3,1026.5
118,2020-11-16T01:57:00,0.7,北北西,1.7,北,11,95.6,0,0,0,0,0,0,1012.3,1026.5
119,2020-11-16T01:58:00,0.6,北北西,1.4,北,10.9,95.5,0,0,0,0,0,0,1012.3,1026.5
120,2020-11-16T01:59:00,0.6,北,1.5,北北東,10.9,95.5,0,0,0,0,0,0,1012.3,1026.5
121,2020-11-16T02:00:00,0.7,北,1.9,北北東,10.8,95.5,0,0,0,0,0,0,1012.3,1026.5
122,2020-11-16T02:01:00,0.8,北,1.9,北北東,10.9,95.6,0,0,0,0,0,0,1012.3,1026.5
123,2020-11-16T02:02:00,0.9,北,1.9,北北東,10.9,95.8,0,0,0,0,0,0,1012.3,1026.5
124,2020-11-16T02:03:00,0.9,北,1.9,北北東,11,95.9,0,0,0,0,0,0,1012.3,1026.5
125,2020-11-16T02:04:00,0.8,北,1.9,北北東,10.9,95.9,0,0,0,0,0,0,1012.3,1026.5
126,2020-11-16T02:05:00,0.8,北,1.9,北北東,10.9,95.8,0,0,0,0,0,0,1012.4,1026.6
127,2020-11-16T02:06:00,0.8,北,1.9,北北東,10.8,95.7,0,0,0,0,0,0,1012.3,1026.5
128,2020-11-16T02:07:00,0.9,北,1.9,北北東,10.9,95.8,0,0,0,0,0,0,1012.3,1026.5
129,2020-11-16T02:08:00,0.9,北,1.9,北北東,10.8,95.8,0,0,0,0,0,0,1012.3,1026.5
130,2020-11-16T02:09:00,0.8,北,1.9,北北東,10.7,95.7,0,0,0,0,0,0,1012.3,1026.5
131,2020-11-16T02:10:00,0.7,北,1.9,北北東,10.7,95.7,0,0,0,0,0,0,1012.3,1026.5
132,2020-11-16T02:11:00,0.6,北,1.9,北北東,10.7,95.8,0,0,0,0,0,0,1012.3,1026.5
133,2020-11-16T02:12:00,0.6,北,1.4,北北東,10.8,95.8,0,0,0,0,0,0,1012.3,1026.5
134,2020-11-16T02:13:00,0.5,北,1.4,北北東,10.8,96.1,0,0,0,0,0,0,1012.3,1026.5
135,2020-11-16T02:14:00,0.6,北,1.4,北北東,10.8,96,0,0,0,0,0,0,1012.3,1026.5
136,2020-11-16T02:15:00,0.6,北,1.4,北北東,10.9,96,0,0,0,0,0,0,1012.2,1026.4
137,2020-11-16T02:16:00,0.6,北,1.4,北北東,10.8,96,0,0,0,0,0,0,1012.2,1026.4
138,2020-11-16T02:17:00,0.5,北,1.4,北北東,10.8,95.9,0,0,0,0,0,0,1012.2,1026.4
139,2020-11-16T02:18:00,0.6,北,1.4,北北東,10.8,96,0,0,0,0,0,0,1012.2,1026.4
140,2020-11-16T02:19:00,0.6,北,1.4,北北東,10.7,95.9,0,0,0,0,0,0,1012.2,1026.4
141,2020-11-16T02:20:00,0.6,北,1.4,北北東,10.7,95.8,0,0,0,0,0,0,1012.2,1026.4
142,2020-11-16T02:21:00,0.7,北,1.4,北北東,10.7,95.9,0,0,0,0,0,0,1012.2,1026.4
143,2020-11-16T02:22:00,0.7,北,1.4,北,10.7,95.9,0,0,0,0,0,0,1012.2,1026.4
144,2020-11-16T02:23:00,0.7,北,1.4,北,10.7,96,0,0,0,0,0,0,1012.2,1026.4
145,2020-11-16T02:24:00,0.7,北,1.4,北,10.7,96,0,0,0,0,0,0,1012.2,1026.4
146,2020-11-16T02:25:00,0.7,北,1.4,北,10.7,96,0,0,0,0,0,0,1012.2,1026.4
147,2020-11-16T02:26:00,0.7,北,1.4,北,10.7,96.1,0,0,0,0,0,0,1012.1,1026.3
148,2020-11-16T02:27:00,0.7,北,1.4,北,10.7,96,0,0,0,0,0,0,1012.1,1026.3
149,2020-11-16T02:28:00,0.7,北,1.4,北,10.7,95.9,0,0,0,0,0,0,1012.1,1026.3
150,2020-11-16T02:29:00,0.7,北北西,1.4,北,10.6,95.9,0,0,0,0,0,0,1012.1,1026.3
151,2020-11-16T02:30:00,0.6,北北西,1.4,北,10.5,95.8,0,0,0,0,0,0,1012.1,1026.3
152,2020-11-16T02:31:00,0.5,北北西,1.2,北東,10.6,95.9,0,0,0,0,0,0,1012.1,1026.3
153,2020-11-16T02:32:00,0.5,北北西,1.2,北東,10.7,96,0,0,0,0,0,0,1012.1,1026.3
154,2020-11-16T02:33:00,0.5,北北西,1.2,北東,10.6,96,0,0,0,0,0,0,1012.1,1026.3
155,2020-11-16T02:34:00,0.5,北西,1.1,西,10.6,96,0,0,0,0,0,0,1012.1,1026.3
156,2020-11-16T02:35:00,0.5,北西,1.1,西,10.8,96.2,0,0,0,0,0,0,1012.1,1026.3
157,2020-11-16T02:36:00,0.6,北西,1.2,西,10.8,96.3,0,0,0,0,0,0,1012.1,1026.3
158,2020-11-16T02:37:00,0.6,北西,1.2,西,10.6,96,0,0,0,0,0,0,1012.1,1026.3
159,2020-11-16T02:38:00,0.6,西北西,1.2,西,10.4,95.8,0,0,0,0,0,0,1012.1,1026.3
160,2020-11-16T02:39:00,0.6,西北西,1.2,西,10.4,95.6,0,0,0,0,0,0,1012.1,1026.3
161,2020-11-16T02:40:00,0.5,西北西,1.2,西,10.4,95.7,0,0,0,0,0,0,1012.1,1026.3
162,2020-11-16T02:41:00,0.5,西北西,1.2,西,10.5,95.9,0,0,0,0,0,0,1012.1,1026.3
163,2020-11-16T02:42:00,0.6,西,1.4,西北西,10.5,96,0,0,0,0,0,0,1012.1,1026.3
164,2020-11-16T02:43:00,0.7,西,1.4,西北西,10.5,96,0,0,0,0,0,0,1012.1,1026.3
165,2020-11-16T02:44:00,0.6,西,1.4,西北西,10.4,95.9,0,0,0,0,0,0,1012.1,1026.3
166,2020-11-16T02:45:00,0.6,西,1.4,西北西,10.5,96,0,0,0,0,0,0,1012.1,1026.3
167,2020-11-16T02:46:00,0.6,西,1.5,西,10.6,96.3,0,0,0,0,0,0,1012.1,1026.3
168,2020-11-16T02:47:00,0.6,西,1.5,西,10.8,96.6,0,0,0,0,0,0,1012,1026.2
169,2020-11-16T02:48:00,0.6,西,1.5,西,10.9,96.7,0,0,0,0,0,0,1012,1026.2
170,2020-11-16T02:49:00,0.6,西,1.5,西,10.9,96.7,0,0,0,0,0,0,1012,1026.2
171,2020-11-16T02:50:00,0.6,西北西,1.5,西,10.7,96.2,0,0,0,0,0,0,1012.1,1026.3
172,2020-11-16T02:51:00,0.6,西北西,1.5,西,10.6,96.1,0,0,0,0,0,0,1012,1026.2
173,2020-11-16T02:52:00,0.5,西,1.5,西,10.5,95.9,0,0,0,0,0,0,1012.1,1026.3
174,2020-11-16T02:53:00,0.4,西,1.5,西,10.5,96,0,0,0,0,0,0,1012.1,1026.3
175,2020-11-16T02:54:00,0.3,北,1.5,西,10.4,96,0,0,0,0,0,0,1012.1,1026.3
176,2020-11-16T02:55:00,0.3,北東,1.5,西,10.3,95.9,0,0,0,0,0,0,1012.1,1026.3
177,2020-11-16T02:56:00,0.2,静穏,1.4,西南西,10.4,96,0,0,0,0,0,0,1012.1,1026.3
178,2020-11-16T02:57:00,0.1,静穏,0.7,西,10.4,96.2,0,0,0,0,0,0,1012.1,1026.3
179,2020-11-16T02:58:00,0.1,静穏,0.5,東北東,10.4,96.1,0,0,0,0,0,0,1012.1,1026.3
180,2020-11-16T02:59:00,0.2,静穏,0.8,東北東,10.2,95.9,0,0,0,0,0,0,1012.1,1026.3
181,2020-11-16T03:00:00,0.2,静穏,0.8,東北東,10.1,95.9,0,0,0,0,0,0,1012.1,1026.3
182,2020-11-16T03:01:00,0.2,静穏,0.8,東北東,10.1,95.9,0,0,0,0,0,0,1012.1,1026.3
183,2020-11-16T03:02:00,0.2,静穏,0.8,東北東,10.1,95.9,0,0,0,0,0,0,1012,1026.2
184,2020-11-16T03:03:00,0.2,静穏,0.8,東北東,10.1,96,0,0,0,0,0,0,1012,1026.2
185,2020-11-16T03:04:00,0.2,静穏,0.8,東北東,10.1,96.1,0,0,0,0,0,0,1012,1026.2
186,2020-11-16T03:05:00,0.2,静穏,0.8,東北東,10.2,96.3,0,0,0,0,0,0,1012,1026.2
187,2020-11-16T03:06:00,0.2,静穏,0.8,東北東,10.1,96.4,0,0,0,0,0,0,1012,1026.2
188,2020-11-16T03:07:00,0.2,静穏,0.8,東北東,10.2,96.3,0,0,0,0,0,0,1012,1026.2
189,2020-11-16T03:08:00,0.1,静穏,0.8,東北東,10.2,96.3,0,0,0,0,0,0,1012,1026.2
190,2020-11-16T03:09:00,0.1,静穏,0.8,北北西,10.1,96.4,0,0,0,0,0,0,1012,1026.2
191,2020-11-16T03:10:00,0.1,静穏,0.8,北北西,10.1,96.3,0,0,0,0,0,0,1012,1026.2
192,2020-11-16T03:11:00,0.1,静穏,0.8,北北西,10.2,96.4,0,0,0,0,0,0,1012,1026.2
193,2020-11-16T03:12:00,0.1,静穏,0.6,北,10.4,96.6,0,0,0,0,0,0,1012,1026.2
194,2020-11-16T03:13:00,0.1,静穏,0.6,北,10.5,96.8,0,0,0,0,0,0,1012,1026.2
195,2020-11-16T03:14:00,0.2,静穏,0.6,北,10.7,97,0,0,0,0,0,0,1012,1026.2
196,2020-11-16T03:15:00,0.2,静穏,0.6,北,10.7,97,0,0,0,0,0,0,1012,1026.2
197,2020-11-16T03:16:00,0.2,静穏,0.6,北,10.5,96.7,0,0,0,0,0,0,1012,1026.2
198,2020-11-16T03:17:00,0.2,静穏,0.6,北,10.6,96.6,0,0,0,0,0,0,1012,1026.2
199,2020-11-16T03:18:00,0.3,北北東,0.6,北,10.5,96.5,0,0,0,0,0,0,1012,1026.2
200,2020-11-16T03:19:00,0.3,北北東,0.6,北,10.4,96.4,0,0,0,0,0,0,1012,1026.2
201,2020-11-16T03:20:00,0.3,北北東,0.6,北,10.4,96.3,0,0,0,0,0,0,1012,1026.2
202,2020-11-16T03:21:00,0.3,北北東,0.6,北,10.4,96.2,0,0,0,0,0,0,1012,1026.2
203,2020-11-16T03:22:00,0.3,北北東,0.6,北東,10.3,96.3,0,0,0,0,0,0,1012,1026.2
204,2020-11-16T03:23:00,0.3,北東,0.6,北東,10.2,96.2,0,0,0,0,0,0,1011.9,1026.1
205,2020-11-16T03:24:00,0.2,静穏,0.6,北東,10.2,96.1,0,0,0,0,0,0,1011.9,1026.1
206,2020-11-16T03:25:00,0.2,静穏,0.6,北東,10.2,96.2,0,0,0,0,0,0,1012,1026.2
207,2020-11-16T03:26:00,0.2,静穏,0.6,北東,10.2,96.3,0,0,0,0,0,0,1012,1026.2
208,2020-11-16T03:27:00,0.2,静穏,0.5,北西,10.2,96.3,0,0,0,0,0,0,1011.9,1026.1
209,2020-11-16T03:28:00,0.2,静穏,0.5,北西,10.2,96.3,0,0,0,0,0,0,1011.9,1026.1
210,2020-11-16T03:29:00,0.2,静穏,0.5,北西,10.1,96.2,0,0,0,0,0,0,1012,1026.2
211,2020-11-16T03:30:00,0.2,静穏,0.5,北西,10.2,96.3,0,0,0,0,0,0,1012,1026.2
212,2020-11-16T03:31:00,0.2,静穏,0.5,北西,10.2,96.4,0,0,0,0,0,0,1012,1026.2
213,2020-11-16T03:32:00,0.2,静穏,0.6,西北西,10.2,96.5,0,0,0,0,0,0,1012,1026.2
214,2020-11-16T03:33:00,0.3,西北西,0.6,西北西,10.2,96.4,0,0,0,0,0,0,1012,1026.2
215,2020-11-16T03:34:00,0.3,西北西,0.6,西北西,10.2,96.4,0,0,0,0,0,0,1012,1026.2
216,2020-11-16T03:35:00,0.3,西北西,0.6,西北西,10.1,96.4,0,0,0,0,0,0,1011.9,1026.1
217,2020-11-16T03:36:00,0.3,西,0.6,西北西,10.1,96.4,0,0,0,0,0,0,1012,1026.2
218,2020-11-16T03:37:00,0.2,静穏,0.6,西北西,10.3,96.7,0,0,0,0,0,0,1011.9,1026.1
219,2020-11-16T03:38:00,0.2,静穏,0.6,西北西,10.3,96.8,0,0,0,0,0,0,1011.9,1026.1
220,2020-11-16T03:39:00,0.2,静穏,0.6,西北西,10.3,96.6,0,0,0,0,0,0,1011.9,1026.1
221,2020-11-16T03:40:00,0.2,静穏,0.6,西北西,10.2,96.6,0,0,0,0,0,0,1011.9,1026.1
222,2020-11-16T03:41:00,0.2,静穏,0.6,西北西,10.2,96.5,0,0,0,0,0,0,1011.9,1026.1
223,2020-11-16T03:42:00,0.1,静穏,0.6,西,10.1,96.4,0,0,0,0,0,0,1011.9,1026.1
224,2020-11-16T03:43:00,0.1,静穏,0.4,西南西,10,96.2,0,0,0,0,0,0,1011.9,1026.1
225,2020-11-16T03:44:00,0.1,静穏,0.3,東北東,10,96.3,0,0,0,0,0,0,1011.9,1026.1
226,2020-11-16T03:45:00,0.1,静穏,0.3,東北東,10,96.4,0,0,0,0,0,0,1011.9,1026.1
227,2020-11-16T03:46:00,0.1,静穏,0.3,東北東,10.1,96.5,0,0,0,0,0,0,1011.8,1026
228,2020-11-16T03:47:00,0.1,静穏,0.3,東北東,10.1,96.6,0,0,0,0,0,0,1011.9,1026.1
229,2020-11-16T03:48:00,0.1,静穏,0.6,北北西,10,96.4,0,0,0,0,0,0,1011.9,1026.1
230,2020-11-16T03:49:00,0.1,静穏,0.7,北北西,9.9,96.3,0,0,0,0,0,0,1011.9,1026.1
231,2020-11-16T03:50:00,0.2,静穏,0.9,北北西,9.9,96.1,0,0,0,0,0,0,1011.9,1026.1
232,2020-11-16T03:51:00,0.2,静穏,0.9,北北西,9.8,96.1,0,0,0,0,0,0,1011.9,1026.1
233,2020-11-16T03:52:00,0.2,静穏,0.9,北北西,9.7,96,0,0,0,0,0,0,1011.9,1026.1
234,2020-11-16T03:53:00,0.3,北,1.7,北北東,9.7,96.2,0,0,0,0,0,0,1011.9,1026.1
235,2020-11-16T03:54:00,0.5,北,2.1,北北東,9.7,96.2,0,0,0,0,0,0,1012,1026.2
236,2020-11-16T03:55:00,0.6,北,2.1,北北東,9.8,96.3,0,0,0,0,0,0,1012,1026.2
237,2020-11-16T03:56:00,0.8,北北西,2.4,北,9.7,96.4,0,0,0,0,0,0,1012,1026.2
238,2020-11-16T03:57:00,0.9,北,2.4,北,9.7,96.2,0,0,0,0,0,0,1011.9,1026.1
239,2020-11-16T03:58:00,1,北,2.4,北,9.8,96.4,0,0,0,0,0,0,1011.9,1026.1
240,2020-11-16T03:59:00,1,北,2.4,北,9.8,96.5,0,0,0,0,0,0,1012,1026.2
241,2020-11-16T04:00:00,1,北北東,2.4,北,9.6,96.2,0,0,0,0,0,0,1012,1026.3
242,2020-11-16T04:01:00,1,北北東,2.4,北,9.7,96.2,0,0,0,0,0,0,1012,1026.2
243,2020-11-16T04:02:00,1,北北東,2.4,北,9.6,96.3,0,0,0,0,0,0,1012,1026.3
244,2020-11-16T04:03:00,1,北北東,2.4,北,9.6,96.3,0,0,0,0,0,0,1012,1026.3
245,2020-11-16T04:04:00,0.9,北北東,2.4,北,9.7,96.4,0,0,0,0,0,0,1012,1026.2
246,2020-11-16T04:05:00,0.9,北北東,2.4,北,9.8,96.6,0,0,0,0,0,0,1012,1026.2
247,2020-11-16T04:06:00,0.7,北北東,2.3,北北東,9.7,96.5,0,0,0,0,0,0,1012,1026.2
248,2020-11-16T04:07:00,0.6,北北東,1.8,北北東,9.6,96.3,0,0,0,0,0,0,1012,1026.3
249,2020-11-16T04:08:00,0.5,北,1.2,北北東,9.5,96.3,0,0,0,0,0,0,1012,1026.3
250,2020-11-16T04:09:00,0.4,北,1.2,北北東,9.5,96.3,0,0,0,0,0,0,1012,1026.3
251,2020-11-16T04:10:00,0.5,北,1.2,北北東,9.6,96.5,0,0,0,0,0,0,1012,1026.3
252,2020-11-16T04:11:00,0.4,北,1.2,北北東,9.7,96.7,0,0,0,0,0,0,1012,1026.2
253,2020-11-16T04:12:00,0.4,北,1.2,北北東,9.8,96.9,0,0,0,0,0,0,1012,1026.2
254,2020-11-16T04:13:00,0.4,北,1.2,北北東,9.7,96.9,0,0,0,0,0,0,1012,1026.2
255,2020-11-16T04:14:00,0.3,北,1,北北東,9.6,96.7,0,0,0,0,0,0,1012,1026.3
256,2020-11-16T04:15:00,0.3,北,1,北,9.7,96.7,0,0,0,0,0,0,1012,1026.2
257,2020-11-16T04:16:00,0.4,北,1.2,北,9.7,96.8,0,0,0,0,0,0,1012,1026.2
258,2020-11-16T04:17:00,0.5,北,1.2,北,9.7,96.8,0,0,0,0,0,0,1012,1026.2
259,2020-11-16T04:18:00,0.5,北,1.2,北,9.8,96.9,0,0,0,0,0,0,1012,1026.2
260,2020-11-16T04:19:00,0.5,北,1.2,北,9.6,96.7,0,0,0,0,0,0,1012,1026.3
261,2020-11-16T04:20:00,0.6,北,1.3,北北東,9.6,96.6,0,0,0,0,0,0,1012,1026.3
262,2020-11-16T04:21:00,0.7,北,1.6,北,9.6,96.6,0,0,0,0,0,0,1012,1026.3
263,2020-11-16T04:22:00,0.7,北,1.6,北,9.7,96.8,0,0,0,0,0,0,1012,1026.2
264,2020-11-16T04:23:00,0.8,北,1.6,北,9.6,96.8,0,0,0,0,0,0,1012,1026.3
265,2020-11-16T04:24:00,0.8,北北西,1.6,北,9.8,96.9,0,0,0,0,0,0,1012,1026.2
266,2020-11-16T04:25:00,0.8,北北西,1.6,北,9.6,96.8,0,0,0,0,0,0,1012,1026.3
267,2020-11-16T04:26:00,0.8,北北西,1.6,北,9.6,96.6,0,0,0,0,0,0,1012,1026.3
268,2020-11-16T04:27:00,0.8,北北西,1.6,北,9.6,96.6,0,0,0,0,0,0,1012,1026.3
269,2020-11-16T04:28:00,0.8,北北西,1.6,北,9.7,96.8,0,0,0,0,0,0,1012,1026.2
270,2020-11-16T04:29:00,0.9,北北西,1.6,北,9.8,96.8,0,0,0,0,0,0,1012,1026.2
271,2020-11-16T04:30:00,0.9,北西,1.6,北,9.6,96.9,0,0,0,0,0,0,1012,1026.3
272,2020-11-16T04:31:00,0.8,北西,1.6,西北西,9.5,96.6,0,0,0,0,0,0,1012,1026.3
273,2020-11-16T04:32:00,0.8,北西,1.4,北西,9.6,96.7,0,0,0,0,0,0,1012,1026.3
274,2020-11-16T04:33:00,0.7,北西,1.4,北西,9.5,96.7,0,0,0,0,0,0,1012,1026.3
275,2020-11-16T04:34:00,0.7,北西,1.4,北西,9.5,96.7,0,0,0,0,0,0,1012,1026.3
276,2020-11-16T04:35:00,0.7,北北西,1.4,北西,9.5,96.7,0,0,0,0,0,0,1011.9,1026.2
277,2020-11-16T04:36:00,0.7,北北西,1.5,北,9.5,96.7,0,0,0,0,0,0,1012,1026.3
278,2020-11-16T04:37:00,0.7,北北西,1.5,北,9.5,96.8,0,0,0,0,0,0,1012,1026.3
279,2020-11-16T04:38:00,0.7,北北西,1.5,北,9.4,96.8,0,0,0,0,0,0,1012,1026.3
280,2020-11-16T04:39:00,0.6,北北西,1.5,北,9.4,96.6,0,0,0,0,0,0,1012,1026.3
281,2020-11-16T04:40:00,0.5,北北西,1.5,北,9.4,96.7,0,0,0,0,0,0,1012,1026.3
282,2020-11-16T04:41:00,0.4,北西,1.5,北,9.4,96.8,0,0,0,0,0,0,1012,1026.3
283,2020-11-16T04:42:00,0.4,北西,1.5,北,9.5,96.8,0,0,0,0,0,0,1012,1026.3
284,2020-11-16T04:43:00,0.4,北西,1.5,北,9.6,97,0,0,0,0,0,0,1012,1026.3
285,2020-11-16T04:44:00,0.4,北西,1.5,北,9.7,97.3,0,0,0,0,0,0,1012,1026.2
286,2020-11-16T04:45:00,0.4,北西,1.5,北,9.6,97.2,0,0,0,0,0,0,1012,1026.3
287,2020-11-16T04:46:00,0.4,北西,1.3,北西,9.6,97.2,0,0,0,0,0,0,1012.1,1026.4
288,2020-11-16T04:47:00,0.4,北西,1.3,北西,9.6,97,0,0,0,0,0,0,1012.1,1026.4
289,2020-11-16T04:48:00,0.5,北西,1.3,北西,9.7,97,0,0,0,0,0,0,1012.1,1026.4
290,2020-11-16T04:49:00,0.6,北西,1.3,北西,9.7,97.2,0,0,0,0,0,0,1012.1,1026.4
291,2020-11-16T04:50:00,0.7,北西,1.3,北西,9.6,97.2,0,0,0,0,0,0,1012.1,1026.4
292,2020-11-16T04:51:00,0.7,北北西,1.3,北西,9.7,97.2,0,0,0,0,0,0,1012.1,1026.4
293,2020-11-16T04:52:00,0.8,北北西,1.3,北西,9.7,97.3,0,0,0,0,0,0,1012.1,1026.4
294,2020-11-16T04:53:00,0.8,北北西,1.3,北西,9.7,97.3,0,0,0,0,0,0,1012.1,1026.4
295,2020-11-16T04:54:00,0.9,北北西,1.3,北西,9.6,97.2,0,0,0,0,0,0,1012.1,1026.4
296,2020-11-16T04:55:00,0.9,北,1.3,北西,9.7,97.2,0,0,0,0,0,0,1012.1,1026.4
297,2020-11-16T04:56:00,0.8,北,1.5,北東,9.7,97.3,0,0,0,0,0,0,1012.1,1026.4
298,2020-11-16T04:57:00,0.8,北北東,1.5,北東,9.5,97.1,0,0,0,0,0,0,1012.1,1026.4
299,2020-11-16T04:58:00,0.9,北北東,1.5,北東,9.5,97,0,0,0,0,0,0,1012.1,1026.4
300,2020-11-16T04:59:00,0.9,北北東,1.7,北北東,9.4,97.1,0,0,0,0,0,0,1012.1,1026.4
301,2020-11-16T05:00:00,0.9,北北東,1.7,北北東,9.4,97,0,0,0,0,0,0,1012.1,1026.4
302,2020-11-16T05:01:00,0.9,北北東,1.7,北北東,9.5,97.1,0,0,0,0,0,0,1012.1,1026.4
303,2020-11-16T05:02:00,0.9,北北東,1.7,北北東,9.4,97.2,0,0,0,0,0,0,1012.1,1026.4
304,2020-11-16T05:03:00,0.9,北北東,1.7,北北東,9.4,97.2,0,0,0,0,0,0,1012.1,1026.4
305,2020-11-16T05:04:00,1,北北東,1.7,北北東,9.4,97.2,0,0,0,0,0,0,1012.1,1026.4
306,2020-11-16T05:05:00,0.9,北北東,1.7,北北東,9.5,97.4,0,0,0,0,0,0,1012.1,1026.4
307,2020-11-16T05:06:00,0.9,北北東,1.7,北北東,9.5,97.4,0,0,0,0,0,0,1012.1,1026.4
308,2020-11-16T05:07:00,0.9,北北東,1.7,北北東,9.6,97.5,0,0,0,0,0,0,1012.2,1026.5
309,2020-11-16T05:08:00,0.8,北北東,1.7,北北東,9.5,97.5,0,0,0,0,0,0,1012.2,1026.5
310,2020-11-16T05:09:00,0.8,北,1.6,北,9.5,97.4,0,0,0,0,0,0,1012.2,1026.5
311,2020-11-16T05:10:00,0.7,北,1.6,北,9.5,97.5,0,0,0,0,0,0,1012.2,1026.5
312,2020-11-16T05:11:00,0.7,北,1.7,北,9.6,97.5,0,0,0,0,0,0,1012.2,1026.5
313,2020-11-16T05:12:00,0.7,北,1.7,北,9.6,97.6,0,0,0,0,0,0,1012.2,1026.5
314,2020-11-16T05:13:00,0.7,北,2,北北東,9.6,97.6,0,0,0,0,0,0,1012.2,1026.5
315,2020-11-16T05:14:00,0.8,北,2,北北東,9.5,97.5,0,0,0,0,0,0,1012.2,1026.5
316,2020-11-16T05:15:00,0.8,北,2,北北東,9.6,97.5,0,0,0,0,0,0,1012.2,1026.5
317,2020-11-16T05:16:00,0.8,北,2,北北東,9.5,97.6,0,0,0,0,0,0,1012.2,1026.5
318,2020-11-16T05:17:00,0.8,北,2,北北東,9.6,97.6,0,0,0,0,0,0,1012.2,1026.5
319,2020-11-16T05:18:00,0.8,北,2,北北東,9.5,97.6,0,0,0,0,0,0,1012.2,1026.5
320,2020-11-16T05:19:00,0.8,北,2,北北東,9.5,97.5,0,0,0,0,0,0,1012.2,1026.5
321,2020-11-16T05:20:00,0.8,北,2,北北東,9.6,97.5,0,0,0,0,0,0,1012.2,1026.5
322,2020-11-16T05:21:00,0.8,北,2,北北東,9.5,97.6,0,0,0,0,0,0,1012.2,1026.5
323,2020-11-16T05:22:00,0.7,北,2,北北東,9.6,97.6,0,0,0,0,0,0,1012.2,1026.5
324,2020-11-16T05:23:00,0.6,北北西,1.8,北北東,9.6,97.6,0,0,0,0,0,0,1012.3,1026.6
325,2020-11-16T05:24:00,0.6,北北西,1.5,北北東,9.5,97.7,0,0,0,0,0,0,1012.3,1026.6
326,2020-11-16T05:25:00,0.5,北北西,1.2,北西,9.5,97.6,0,0,0,0,0,0,1012.3,1026.6
327,2020-11-16T05:26:00,0.6,北北西,1.4,北北東,9.5,97.6,0,0,0,0,0,0,1012.3,1026.6
328,2020-11-16T05:27:00,0.6,北北西,1.4,北北東,9.6,97.7,0,0,0,0,0,0,1012.3,1026.6
329,2020-11-16T05:28:00,0.7,北北西,1.6,北北東,9.6,97.7,0,0,0,0,0,0,1012.3,1026.6
330,2020-11-16T05:29:00,0.7,北,2,北北東,9.6,97.8,0,0,0,0,0,0,1012.3,1026.6